Regional Weather Roundup
Issued by NWS

Home | Current Version | Previous Version | Text Only | Print | Product List | Glossary Off
Versions: 1 2 3 4 5 6 7 8 9 10 11 12 13 14 15 16 17 18 19 20 21 22 23 24 25 26 27 28 29 30 31 32 33 34 35 36 37 38 39 40 41 42 43 44 45 46 47 48 49 50

000
ASUS43 KFSD 131902
RWRSD

WEATHER ROUNDUP FOR SOUTH DAKOTA
NATIONAL WEATHER SERVICE SIOUX FALLS SD
100 PM CST WED DEC 13 2017

NOTE: "FAIR" INDICATES FEW OR NO CLOUDS BELOW 12,000 FEET WITH NO
SIGNIFICANT WEATHER AND/OR OBSTRUCTIONS TO VISIBILITY.


SDZ001>005-009-010-012>017-132000-
NORTHWEST AND NORTH CENTRAL SOUTH DAKOTA

CITY           SKY/WX    TMP DP  RH WIND       PRES   REMARKS
BUFFALO          N/A     42  25  50 NW26G33   29.97F
FAITH            N/A     43  26  51 NW29G39   29.96F
MOBRIDGE       CLOUDY    41  28  60 NW22G35   29.89F
$$

SDZ012>016-024>037-041>051-057-063-072>074-132000-
SOUTHWEST AND SOUTH CENTRAL SOUTH DAKOTA

CITY           SKY/WX    TMP DP  RH WIND       PRES   REMARKS
RAPID CTY ARPT CLOUDY    47  21  35 NW31G39   30.01F
PIERRE         SUNNY     46  28  49 NW30G37   29.91F
CUSTER         CLOUDY    39  11  31 N9        30.00F
ELLSWORTH AFB  MOSUNNY   45  21  39 NW31G40   29.99
PHILIP         SUNNY     45  27  49 NW23G36   29.98F
PINE RIDGE     SUNNY     48  23  37 NW17G25   30.03F
SPEARFISH      FAIR      41  21  45 NW25G32   30.04F
WINNER         FAIR      48  28  46 NW30G40   29.91F
$$

SDZ004>011-016>023-039-040-132000-
NORTHEAST SOUTH DAKOTA

CITY           SKY/WX    TMP DP  RH WIND       PRES   REMARKS
ABERDEEN       CLOUDY    37  29  72 NW22G31   29.85S
WATERTOWN      CLOUDY    32  29  88 N20G31    29.77F WCI  20
BROOKINGS      CLOUDY    34  28  79 N22G28    29.77R WCI  22
SISSETON         N/A     33  26  75 N23G33    29.79R WCI  21
$$

SDZ017-020-022-023-036>040-048>070-132000-
SOUTHEAST SOUTH DAKOTA

CITY           SKY/WX    TMP DP  RH WIND       PRES   REMARKS
SIOUX FALLS    CLOUDY    38  30  73 N31       29.78S
HURON          CLOUDY    38  29  70 N24G32    29.85S
CHAMBERLAIN    PTSUNNY   46  31  54 NW24G30   29.90F
MITCHELL       CLOUDY    41  30  65 NW23G30   29.87R
YANKTON        CLOUDY    41  29  62 NW28G35   29.83R
$$

ABBREVIATIONS USED IN REMARKS
   TC - TEMPERATURE IN CELSIUS
  WCI - WIND CHILL INDEX
   HX - HEAT INDEX
  VSB - VISIBILITY





USA.gov is the U.S. government's official web portal to all federal, state and local government web resources and services.